Regional Weather Roundup
Issued by NWS

Home | Current Version | Previous Version | Graphics & Text | Print | Product List | Glossary On
Versions: 1 2 3 4 5 6 7 8 9 10 11 12 13 14 15 16 17 18 19 20 21 22 23 24 25 26 27 28 29 30 31 32 33 34 35 36 37 38 39 40 41 42 43 44 45 46 47 48 49 50
000
ASUS43 KFSD 261902
RWRSD

WEATHER ROUNDUP FOR SOUTH DAKOTA
NATIONAL WEATHER SERVICE SIOUX FALLS SD
100 PM CST SUN FEB 26 2017

NOTE: "FAIR" INDICATES FEW OR NO CLOUDS BELOW 12,000 FEET WITH NO
SIGNIFICANT WEATHER AND/OR OBSTRUCTIONS TO VISIBILITY.


SDZ001>005-009-010-012>017-262000-
NORTHWEST AND NORTH CENTRAL SOUTH DAKOTA

CITY           SKY/WX    TMP DP  RH WIND       PRES   REMARKS
BUFFALO          N/A     35  18  49 W28G36    29.65S WCI  22
FAITH            N/A     38  17  42 W23G29    29.74S
MOBRIDGE       SUNNY     34  20  56 W7        29.74F WCI  28
$$

SDZ012>016-024>037-041>051-057-063-072>074-262000-
SOUTHWEST AND SOUTH CENTRAL SOUTH DAKOTA

CITY           SKY/WX    TMP DP  RH WIND       PRES   REMARKS
RAPID CTY ARPT MOSUNNY   38  15  39 VRB7      29.77S
PIERRE         SUNNY     41  16  36 W12       29.78F
CUSTER         SUNNY     25   6  44 W14       29.70S WCI  13
ELLSWORTH AFB  MOSUNNY   37  16  43 N10       29.76F
PHILIP         MOSUNNY   42  12  29 W16G23    29.78F
PINE RIDGE     SUNNY     27   9  46 W16       29.84S WCI  15
SPEARFISH      FAIR      34  14  44 W16G24    29.73F WCI  23
WINNER         FAIR      38  20  48 W13       29.84F
$$

SDZ004>011-016>023-039-040-262000-
NORTHEAST SOUTH DAKOTA

CITY           SKY/WX    TMP DP  RH WIND       PRES   REMARKS
ABERDEEN       PTSUNNY   28  16  60 VRB3      29.84F
WATERTOWN      SUNNY     30  17  58 VRB6      29.81S WCI  24
BROOKINGS      MOSUNNY   35  20  54 W13       29.82S WCI  26
SISSETON         N/A     24  14  65 VRB3      29.85S
$$

SDZ017-020-022-023-036>040-048>070-262000-
SOUTHEAST SOUTH DAKOTA

CITY           SKY/WX    TMP DP  RH WIND       PRES   REMARKS
SIOUX FALLS    MOSUNNY   33  25  72 W8        29.87S WCI  26
HURON          SUNNY     35  21  56 VRB5      29.84F
CHAMBERLAIN    SUNNY     43  19  38 SW9G17    29.83F
MITCHELL       MOSUNNY   39  25  57 S8        29.86F
YANKTON        SUNNY     32  19  59 NW6       29.90S WCI  26
$$

ABBREVIATIONS USED IN REMARKS
   TC - TEMPERATURE IN CELSIUS
  WCI - WIND CHILL INDEX
   HX - HEAT INDEX
  VSB - VISIBILITY





USA.gov is the U.S. government's official web portal to all federal, state and local government web resources and services.